Regional Weather Roundup
Issued by NWS

Home | Current Version | Previous Version | Text Only | Print | Product List | Glossary Off
Versions: 1 2 3 4 5 6 7 8 9 10 11 12 13 14 15 16 17 18 19 20 21 22 23 24 25 26 27 28 29 30 31 32 33 34 35 36 37 38 39 40 41 42 43 44 45 46 47 48 49 50

000
ASUS43 KLMK 272110
RWRKY
KENTUCKY REGIONAL WEATHER ROUNDUP
NATIONAL WEATHER SERVICE LOUISVILLE KY
400 PM EST TUE JAN 27 2015

NOTE "FAIR" INDICATES FEW OR NO CLOUDS BELOW 12,000 FEET
WITH NO SIGNIFICANT WEATHER AND/OR OBSTRUCTIONS TO VISIBILITY.

KYZ001>023-026-027-061>063-070>075-272200-
WESTERN AND SOUTH CENTRAL KENTUCKY

CITY           SKY/WX    TMP DP  RH WIND       PRES   REMARKS
PADUCAH        CLOUDY    45  30  55 N8        30.13R
HENDERSON      CLOUDY    36  28  75 N6        30.15R WCI  31
OWENSBORO      CLOUDY    35  31  86 N8        30.15R WCI  28
HOPKINSVILLE   CLOUDY    38  30  72 NW10      30.13R WCI  31
BOWLING GREEN  CLOUDY    35  30  82 NW6       30.13R WCI  30
GLASGOW        CLOUDY    33  29  86 N6        30.11R WCI  28
$$

KYZ024-025-028>034-038-045-046-053-272200-
NORTH CENTRAL KENTUCKY

CITY           SKY/WX    TMP DP  RH WIND       PRES   REMARKS
LOUISVILLE/SDF CLOUDY    35  21  56 N8        30.12R WCI  29
LOUISVILLE/LOU CLOUDY    34  21  59 VRB6      30.13R WCI  29
FORT KNOX      CLOUDY    32  26  78 NW8       30.10R WCI  25
$$

KYZ035>037-039>044-047>052-055>060-089>105-272200-
NORTHEAST KENTUCKY

CITY           SKY/WX    TMP DP  RH WIND       PRES   REMARKS
LEXINGTON      SUNNY     33  16  49 N8        30.08R WCI  26
COVINGTON      SUNNY     30  13  49 N13       30.10R WCI  20
FRANKFORT      SUNNY     32  13  45 W10       30.09R WCI  24
$$

KYZ054-064>069-076>088-106>120-272200-
SOUTHEAST KENTUCKY

CITY           SKY/WX    TMP DP  RH WIND       PRES   REMARKS
JACKSON        SUNNY     34   8  33 NW9       30.00R WCI  27
LONDON         CLOUDY    32  19  58 NW8       30.04R WCI  25
SOMERSET       CLOUDY    32  23  69 N9        30.08R WCI  24
MIDDLESBORO    CLOUDY    32  25  75 N6        30.03R WCI  26
MONTICELLO     CLOUDY    33  29  86 CALM      30.10R
$$




USA.gov is the U.S. government's official web portal to all federal, state and local government web resources and services.